Location: Newark
(34.1333°N, 7.9667°W)
Time: 15:30:37
(UTC+00:00)

Tiangong - Pass Details

Date: 05 October 2021
Orbit: 382 x 384 km, 41.5° (Epoch: 20 October)

Event Time Altitude Azimuth Distance (km) Brightness Sun altitude
Exits shadow 04:38:43 22° 28° (NNE) 884 3.2 -23.6°
Drops below altitude 10° 04:40:45 10° 66° (ENE) 1,395 4.9 -23.2°
Sets 04:43:04 0° 81° (E) 2,246 6.4 -22.7°
